Weather History for LTAG - March, 2013

Change the Weather History Date:

Thursday, March 28, 2013

  Actual Average Record
Temperature  
Mean Temperature 58 °F -  
Max Temperature 62 °F 74 °F 84 °F (2004)
Min Temperature 55 °F 54 °F 37 °F (2002)
Degree Days  
Heating Degree Days 6    
Growing Degree Days 8 (Base 50)    
Moisture  
Dew Point 57 °F    
Average Humidity 96    
Maximum Humidity 100    
Minimum Humidity 82    
Precipitation  
Precipitation 2.64 in - - ()
Sea Level Pressure  
Sea Level Pressure 29.96 in    
Wind  
Wind Speed 6 mph ()    
Max Wind Speed 15 mph    
Max Gust Speed -    
Visibility 5.3 miles    
Events Rain , Thunderstorm    
Averages and records for this station are not official NWS values.
T = Trace of Precipitation, MM = Missing Value Source: Averaged Metar Reports

Daily Weather History Graph

Daily Weather History Graph

Search for Another Location

Airport or City:

Trip Planner

Search our weather history database for the weather conditions in past years. The results will help you decide how hot, cold, wet, or windy it might be!

Date:

Astronomy

Mar. 28, 2013 Rise Set
Actual Time 5:30 AM EET 5:57 PM EET
Civil Twilight 5:04 AM EET 6:23 PM EET
Nautical Twilight 4:33 AM EET 6:53 PM EET
Astronomical Twilight 4:02 AM EET 7:25 PM EET
Moon 7:22 PM EET (3/28) 5:47 AM EET (3/28)
Length of Visible Light 13h 19m
Length of Day
12h 27m
Full, 99% of the Moon is Illuminated
Mar 28
Full
Apr 3
Last Quarter
Apr 10
New
Apr 18
First Quarter
Apr 25
Full

Hourly Weather History & Observations

Time (EET) Temp. Dew Point Humidity Pressure Visibility Wind Dir Wind Speed Gust Speed Precip Events Conditions
12:20 AM 59.0 °F 53.6 °F 82% 29.92 in 6.2 mi East 4.6 mph - N/A   Scattered Clouds
12:50 AM 57.2 °F 53.6 °F 88% 29.92 in 6.2 mi East 3.5 mph - N/A   Scattered Clouds
1:20 AM 57.2 °F 53.6 °F 88% 29.92 in 6.2 mi East 4.6 mph - N/A   Scattered Clouds
1:50 AM 57.2 °F 53.6 °F 88% 29.92 in 6.2 mi East 5.8 mph - N/A   Scattered Clouds
2:00 AM 57 °F 54 °F 87% 29.94 in 6 mi East 5.8 mph - -   Partly Cloudy
2:20 AM 57.2 °F 55.4 °F 94% 29.92 in 6.2 mi East 6.9 mph - N/A   Scattered Clouds
2:50 AM 57.2 °F 55.4 °F 94% 29.92 in 6.2 mi East 6.9 mph - N/A   Scattered Clouds
3:20 AM 57.2 °F 55.4 °F 94% 29.92 in 6.2 mi East 5.8 mph - N/A   Scattered Clouds
3:50 AM 59.0 °F 55.4 °F 88% 29.92 in 6.2 mi ESE 4.6 mph - N/A Rain Light Rain Showers
4:20 AM 59.0 °F 55.4 °F 88% 29.92 in 6.2 mi East 6.9 mph - N/A   Mostly Cloudy
4:50 AM 59.0 °F 55.4 °F 88% 29.92 in 6.2 mi East 6.9 mph - N/A   Mostly Cloudy
5:20 AM 57.2 °F 55.4 °F 94% 29.92 in 6.2 mi East 5.8 mph - N/A   Mostly Cloudy
5:50 AM 57.2 °F 55.4 °F 94% 29.92 in 6.2 mi East 4.6 mph - N/A   Mostly Cloudy
6:20 AM 59.0 °F 55.4 °F 88% 29.92 in 6.2 mi East 4.6 mph - N/A   Mostly Cloudy
6:43 AM 59.0 °F 57.2 °F 94% 29.95 in 6.2 mi East 5.8 mph - N/A Rain Light Rain Showers
6:50 AM 59.0 °F 57.2 °F 94% 29.95 in 4.3 mi ESE 5.8 mph - N/A Rain Light Rain Showers
7:20 AM 59.0 °F 57.2 °F 94% 29.95 in 4.3 mi East 8.1 mph - N/A Rain Light Rain Showers
7:50 AM 59.0 °F 59.0 °F 100% 29.95 in 4.3 mi ESE 9.2 mph - N/A   Mostly Cloudy
8:00 AM 59 °F 58 °F 97% 29.94 in 6 mi ESE 9.2 mph - - Rain Light Rain Showers
8:20 AM 59.0 °F 57.2 °F 94% 29.95 in 4.3 mi SE 9.2 mph - N/A   Mostly Cloudy
8:50 AM 59.0 °F 57.2 °F 94% 29.95 in 5.0 mi SSE 15.0 mph - N/A Rain Light Rain Showers
9:20 AM 59.0 °F 59.0 °F 100% 29.98 in 5.0 mi SSE 11.5 mph - N/A Rain Light Rain Showers
9:50 AM 59.0 °F 59.0 °F 100% 29.98 in 5.0 mi South 13.8 mph - N/A Rain Light Rain Showers
10:20 AM 59.0 °F 59.0 °F 100% 29.98 in 5.0 mi South 11.5 mph - N/A Rain Light Rain Showers
10:50 AM 59.0 °F 57.2 °F 94% 29.98 in 5.0 mi South 13.8 mph - N/A Rain Light Rain Showers
11:20 AM 59.0 °F 59.0 °F 100% 29.98 in 5.0 mi South 8.1 mph - N/A Rain Light Rain Showers
11:50 AM 59.0 °F 59.0 °F 100% 29.98 in 5.0 mi SSE 8.1 mph - N/A Rain Light Rain Showers
12:20 PM 59.0 °F 59.0 °F 100% 29.98 in 4.3 mi South 8.1 mph - N/A Rain Light Rain Showers
12:50 PM 60.8 °F 60.8 °F 100% 29.95 in 6.2 mi SW 5.8 mph - N/A Rain Light Rain Showers
1:20 PM 60.8 °F 60.8 °F 100% 29.95 in 6.2 mi SW 8.1 mph - N/A Rain Light Rain Showers
1:50 PM 62.6 °F 59.0 °F 88% 29.95 in 6.2 mi SW 5.8 mph - N/A Rain Light Rain Showers
2:00 PM 62 °F 58 °F 82% 29.95 in 6 mi SW 5.8 mph - - Rain Light Rain Showers
2:20 PM 62.6 °F 60.8 °F 94% 29.95 in 6.2 mi SSW 8.1 mph - N/A Rain Light Rain Showers
2:50 PM 60.8 °F 60.8 °F 100% 29.95 in 3.7 mi SSW 8.1 mph - N/A Rain , Thunderstorm Thunderstorms and Rain
3:01 PM 60.8 °F 60.8 °F 100% 29.95 in 3.7 mi SSW 6.9 mph - N/A Rain , Thunderstorm Light Thunderstorms and Rain
3:20 PM 59.0 °F 59.0 °F 100% 29.95 in 2.5 mi South 10.4 mph - N/A Rain , Thunderstorm Heavy Thunderstorms and Rain
3:50 PM 59.0 °F 59.0 °F 100% 29.95 in 4.3 mi East 4.6 mph - N/A Rain , Thunderstorm Light Thunderstorms and Rain
4:20 PM 60.8 °F 60.8 °F 100% 29.95 in 5.0 mi East 3.5 mph - N/A Rain Light Rain Showers
4:50 PM 59.0 °F 59.0 °F 100% 29.95 in 1.2 mi West 4.6 mph - N/A Rain Heavy Rain Showers
4:55 PM 59.0 °F 59.0 °F 100% 29.95 in 5.0 mi WSW 5.8 mph - N/A Rain Light Rain Showers
5:30 PM 59.0 °F 59.0 °F 100% 29.98 in 2.5 mi WNW 2.3 mph - N/A Rain Heavy Rain Showers
5:50 PM 59.0 °F 59.0 °F 100% 29.95 in 1.2 mi West 4.6 mph - N/A Rain Heavy Rain Showers
6:20 PM 57.2 °F 57.2 °F 100% 29.98 in 3.7 mi SSE 6.9 mph - N/A Rain Light Rain Showers
6:50 PM 57.2 °F 57.2 °F 100% 29.98 in 6.2 mi SE 6.9 mph - N/A Rain Light Rain Showers
7:20 PM 55.4 °F 55.4 °F 100% 29.98 in 6.2 mi NE 9.2 mph - N/A Rain Light Rain Showers
7:50 PM 55.4 °F 55.4 °F 100% 30.01 in 6.2 mi NE 8.1 mph - N/A Rain Light Rain Showers
8:00 PM 56 °F 55 °F 97% 30.01 in 6 mi NE 8.1 mph - - Rain Light Rain Showers
8:20 PM 55.4 °F 55.4 °F 100% 30.01 in 6.2 mi NE 8.1 mph - N/A   Mostly Cloudy
8:50 PM 55.4 °F 55.4 °F 100% 30.01 in 6.2 mi NE 9.2 mph - N/A   Mostly Cloudy
9:20 PM 55.4 °F 55.4 °F 100% 30.01 in 6.2 mi NE 8.1 mph - N/A   Mostly Cloudy
9:50 PM 55.4 °F 55.4 °F 100% 30.01 in 6.2 mi NE 9.2 mph - N/A   Mostly Cloudy
10:20 PM 57.2 °F 55.4 °F 94% 30.01 in 6.2 mi ENE 8.1 mph - N/A   Mostly Cloudy
10:50 PM 57.2 °F 55.4 °F 94% 30.01 in 6.2 mi NE 8.1 mph - N/A   Mostly Cloudy
11:20 PM 57.2 °F 55.4 °F 94% 30.01 in 6.2 mi NE 8.1 mph - N/A   Mostly Cloudy
11:50 PM 57.2 °F 55.4 °F 94% 30.01 in 6.2 mi NE 9.2 mph - N/A   Mostly Cloudy